Hourly Data Report for May 29, 2019

MIRAMICHI RCS
NEW BRUNSWICK
Current Station Operator: ECCC - MSC

47°00'34.000" N
65°27'54.000" W
33.00 m
8100989
71744
ACQ

Download Data

Hourly Data (May 2019)
Hourly Data Report for May 29, 2019
TIME
LST
Temp Definition
°C
Dew Point Definition
°C
Rel Hum Definition
%
Precip. Amount Definition
mm

Wind Dir Definition
10's deg

Wind Spd Definition
km/h
Visibility Definition
km
Stn Press Definition
kPa
Hmdx Definition


Wind Chill Definition


Weather Definition


00:00 8.3 1.3 61 0.0 23 11   100.58     LegendNANA
01:00 6.6 1.3 69 0.0 23 13   100.59     LegendNANA
02:00 6.1 1.2 71 0.0 24 10   100.59     LegendNANA
03:00 5.2 1.0 74 0.0 26 6   100.56     LegendNANA
04:00 4.0 0.6 79 0.0 27 6   100.56     LegendNANA
05:00 3.6 0.8 81 0.0 24 10   100.59     LegendNANA
06:00 5.4 1.5 76 0.0 24 13   100.63     LegendNANA
07:00 8.6 2.8 67 0.0 24 14   100.63     LegendNANA
08:00 11.3 3.0 57 0.0 24 20   100.64     LegendNANA
09:00 13.3 2.5 48 0.0 24 19   100.63     LegendNANA
10:00 14.3 2.1 44 0.0 23 19   100.60     LegendNANA
11:00 15.4 2.7 42 0.0 21 14   100.56     LegendNANA
12:00 16.6 3.3 41 0.0 22 16   100.48     LegendNANA
13:00 17.4 3.1 38 0.0 19 15   100.38     LegendNANA
14:00 17.7 2.6 36 0.0 20 9   100.33     LegendNANA
15:00 17.7 3.2 38 0.0 12 13   100.23     LegendNANA
16:00 17.7 4.8 43 0.0 7 18   100.22     LegendNANA
17:00 17.8 5.4 44 0.0 11 23   100.20     LegendNANA
18:00 16.6 5.2 47 0.0 11 23   100.17     LegendNANA
19:00 15.4 5.3 51 0.0 12 20   100.20     LegendNANA
20:00 13.1 5.0 58 0.0 11 15   100.24     LegendNANA
21:00 10.8 4.8 66 0.0 12 10   100.31     LegendNANA
22:00 9.5 4.9 73 0.0 14 8   100.28     LegendNANA
23:00 9.1 5.2 77 0.0 16 7   100.27     LegendNANA

Notes on Data Quality.

Legend

  • E = Estimated
  • M = Missing
  • NA = Not Available*
  • [empty] = Indicates an unobserved value
Date modified: